Weather History for Arlington, WA

Change the Weather History Date:

Tuesday, March 19, 2013

  Actual Average Record
Temperature  
Mean Temperature 42 °F -  
Max Temperature 53 °F 0 °F 60 °F (1998)
Min Temperature 30 °F - 26 °F (2006)
Degree Days  
Heating Degree Days 24    
Moisture  
Dew Point 31 °F    
Average Humidity 67    
Maximum Humidity 87    
Minimum Humidity 38    
Precipitation  
Precipitation 0.01 in - - ()
Sea Level Pressure  
Sea Level Pressure 29.99 in    
Wind  
Wind Speed 5 mph (ESE)    
Max Wind Speed 23 mph    
Max Gust Speed 29 mph    
Visibility 10 miles    
Events      
Averages and records for this station are not official NWS values.
T = Trace of Precipitation, MM = Missing Value Source: NWS Daily Summary

Daily Weather History Graph

Daily Weather History Graph

Search for Another Location

Airport:

Trip Planner

Search our weather history database for the weather conditions in past years. The results will help you decide how hot, cold, wet, or windy it might be!

Date:

Astronomy

Mar. 19, 2013 Rise Set
Actual Time 7:12 AM PDT 7:20 PM PDT
Civil Twilight 6:41 AM PDT 7:51 PM PDT
Nautical Twilight 6:05 AM PDT 8:28 PM PDT
Astronomical Twilight 5:27 AM PDT 9:05 PM PDT
Moon 11:42 AM PDT (3/19) 2:36 AM PDT (3/19)
Length of Visible Light 13h 09m
Length of Day
12h 07m
Waxing Crescent, 51% of the Moon is Illuminated
Mar 19
Waxing Crescent
Mar 27
Full
Apr 2
Last Quarter
Apr 10
New
Apr 18
First Quarter

Hourly Weather History & Observations

Time (PDT) Temp. Windchill Dew Point Humidity Pressure Visibility Wind Dir Wind Speed Gust Speed Precip Events Conditions
12:15 AM 33.8 °F 27.7 °F 30.2 °F 87% 30.26 in 10.0 mi NNE 6.9 mph - N/A   Clear
12:55 AM 33.8 °F - 30.2 °F 87% 30.25 in 10.0 mi Calm Calm - N/A   Clear
1:15 AM 33.8 °F 29.6 °F 28.4 °F 81% 30.25 in 10.0 mi North 4.6 mph - N/A   Clear
1:35 AM 32.0 °F - 28.4 °F 87% 30.24 in 10.0 mi Calm Calm - N/A   Clear
1:55 AM 35.6 °F - 30.2 °F 81% 30.24 in 10.0 mi Calm Calm - N/A   Clear
2:15 AM 33.8 °F - 30.2 °F 87% 30.23 in 10.0 mi Calm Calm - N/A   Clear
2:35 AM 33.8 °F - 30.2 °F 87% 30.22 in 10.0 mi Calm Calm - N/A   Clear
2:55 AM 33.8 °F - 30.2 °F 87% 30.22 in 10.0 mi Calm Calm - N/A   Clear
3:15 AM 32.0 °F - 28.4 °F 87% 30.22 in 10.0 mi Calm Calm - N/A   Clear
3:35 AM 30.2 °F - 26.6 °F 86% 30.21 in 10.0 mi Calm Calm - N/A   Clear
3:55 AM 32.0 °F - 28.4 °F 87% 30.20 in 10.0 mi Calm Calm - N/A   Clear
4:15 AM 32.0 °F 27.5 °F 28.4 °F 87% 30.19 in 10.0 mi North 4.6 mph - N/A   Clear
4:35 AM 33.8 °F 29.6 °F 28.4 °F 81% 30.18 in 10.0 mi North 4.6 mph - N/A   Clear
4:55 AM 33.8 °F 29.6 °F 28.4 °F 81% 30.17 in 10.0 mi NNE 4.6 mph - N/A   Clear
5:15 AM 33.8 °F - 28.4 °F 81% 30.17 in 10.0 mi Calm Calm - N/A   Clear
5:35 AM 33.8 °F 29.6 °F 28.4 °F 81% 30.16 in 10.0 mi North 4.6 mph - N/A   Clear
5:55 AM 33.8 °F 30.8 °F 26.6 °F 75% 30.14 in 10.0 mi North 3.5 mph - N/A   Clear
6:15 AM 33.8 °F 30.8 °F 26.6 °F 75% 30.14 in 10.0 mi North 3.5 mph - N/A   Clear
6:35 AM 33.8 °F 29.6 °F 28.4 °F 81% 30.12 in 10.0 mi North 4.6 mph - N/A   Clear
6:55 AM 33.8 °F - 28.4 °F 81% 30.12 in 10.0 mi Calm Calm - N/A   Clear
7:15 AM 33.8 °F - 26.6 °F 75% 30.11 in 10.0 mi Calm Calm - N/A   Clear
7:35 AM 33.8 °F - 28.4 °F 81% 30.11 in 10.0 mi Calm Calm - N/A   Clear
7:55 AM 32.0 °F - 26.6 °F 80% 30.11 in 10.0 mi Calm Calm - N/A   Clear
8:15 AM 33.8 °F - 28.4 °F 81% 30.11 in 10.0 mi Calm Calm - N/A   Clear
8:35 AM 33.8 °F - 28.4 °F 81% 30.10 in 10.0 mi Calm Calm - N/A   Clear
8:55 AM 37.4 °F 32.8 °F 30.2 °F 75% 30.09 in 10.0 mi NNE 5.8 mph - N/A   Clear
9:15 AM 39.2 °F 37.0 °F 28.4 °F 65% 30.09 in 10.0 mi NE 3.5 mph - N/A   Clear
9:35 AM 39.2 °F 35.9 °F 30.2 °F 70% 30.09 in 10.0 mi NNE 4.6 mph - N/A   Clear
9:55 AM 41.0 °F - 30.2 °F 65% 30.09 in 10.0 mi Calm Calm - N/A   Clear
10:15 AM 42.8 °F 40.1 °F 30.2 °F 61% 30.08 in 10.0 mi NE 4.6 mph - N/A   Clear
10:35 AM 42.8 °F - 30.2 °F 61% 30.08 in 10.0 mi Calm Calm - N/A   Clear
10:55 AM 42.8 °F 41.1 °F 30.2 °F 61% 30.06 in 10.0 mi NE 3.5 mph - N/A   Clear
11:15 AM 44.6 °F 41.4 °F 30.2 °F 57% 30.05 in 10.0 mi NNE 5.8 mph - N/A   Clear
11:35 AM 44.6 °F - 30.2 °F 57% 30.04 in 10.0 mi Calm Calm - N/A   Partly Cloudy
11:55 AM 46.4 °F - 32.0 °F 57% 30.03 in 10.0 mi Calm Calm - N/A   Partly Cloudy
12:15 PM 46.4 °F - 32.0 °F 57% 30.02 in 10.0 mi Calm Calm - N/A   Clear
12:35 PM 48.2 °F - 30.2 °F 50% 30.01 in 10.0 mi Calm Calm - N/A   Partly Cloudy
12:55 PM 48.2 °F - 30.2 °F 50% 29.99 in 10.0 mi Calm Calm - N/A   Mostly Cloudy
1:15 PM 50.0 °F - 32.0 °F 50% 29.98 in 10.0 mi Calm Calm - N/A   Mostly Cloudy
1:35 PM 51.8 °F - 33.8 °F 50% 29.97 in 10.0 mi Calm Calm - N/A   Overcast
1:55 PM 51.8 °F - 33.8 °F 50% 29.95 in 10.0 mi Calm Calm - N/A   Overcast
2:15 PM 53.6 °F - 33.8 °F 47% 29.94 in 10.0 mi East 3.5 mph - N/A   Overcast
2:35 PM 53.6 °F - 28.4 °F 38% 29.92 in 10.0 mi SE 10.4 mph - N/A   Overcast
2:55 PM 53.6 °F - 28.4 °F 38% 29.91 in 10.0 mi SE 12.7 mph - N/A   Overcast
3:15 PM 53.6 °F - 28.4 °F 38% 29.91 in 10.0 mi SSE 11.5 mph - N/A   Overcast
3:35 PM 53.6 °F - 28.4 °F 38% 29.91 in 10.0 mi SE 16.1 mph 21.9 mph N/A   Overcast
3:55 PM 53.6 °F - 28.4 °F 38% 29.90 in 10.0 mi SE 18.4 mph - N/A   Overcast
4:15 PM 53.6 °F - 28.4 °F 38% 29.89 in 10.0 mi SSE 12.7 mph 17.3 mph N/A   Overcast
4:35 PM 53.6 °F - 28.4 °F 38% 29.88 in 10.0 mi SSE 23.0 mph 27.6 mph N/A   Overcast
4:55 PM 53.6 °F - 30.2 °F 41% 29.87 in 10.0 mi SSE 13.8 mph - N/A   Overcast
5:15 PM 53.6 °F - 28.4 °F 38% 29.87 in 10.0 mi ESE 21.9 mph 28.8 mph N/A   Overcast
5:35 PM 51.8 °F - 30.2 °F 44% 29.86 in 10.0 mi SE 18.4 mph 23.0 mph N/A   Overcast
5:55 PM 50.0 °F - 30.2 °F 47% 29.86 in 10.0 mi SE 20.7 mph 25.3 mph N/A   Overcast
6:15 PM 50.0 °F - 32.0 °F 50% 29.84 in 10.0 mi SE 17.3 mph 23.0 mph N/A   Overcast
6:35 PM 48.2 °F - 33.8 °F 58% 29.84 in 10.0 mi SSE 18.4 mph 24.2 mph N/A   Overcast
6:55 PM 46.4 °F 39.8 °F 33.8 °F 62% 29.83 in 10.0 mi SSE 16.1 mph 21.9 mph N/A   Overcast
7:15 PM 46.4 °F 40.7 °F 35.6 °F 66% 29.82 in 10.0 mi SSE 12.7 mph 18.4 mph N/A   Overcast
7:35 PM 44.6 °F 39.2 °F 35.6 °F 71% 29.80 in 10.0 mi SE 10.4 mph - N/A   Overcast
7:55 PM 44.6 °F 40.7 °F 37.4 °F 76% 29.78 in 10.0 mi SE 6.9 mph - N/A   Overcast
8:15 PM 44.6 °F 40.2 °F 35.6 °F 71% 29.77 in 10.0 mi ESE 8.1 mph - N/A   Overcast
8:35 PM 44.6 °F 40.2 °F 37.4 °F 76% 29.75 in 10.0 mi ESE 8.1 mph - N/A   Overcast
8:55 PM 44.6 °F 40.2 °F 37.4 °F 76% 29.73 in 10.0 mi SE 8.1 mph - N/A   Overcast
9:15 PM 44.6 °F 40.2 °F 37.4 °F 76% 29.72 in 10.0 mi SE 8.1 mph - N/A   Overcast
9:35 PM 44.6 °F 39.7 °F 37.4 °F 76% 29.71 in 10.0 mi ESE 9.2 mph - N/A   Overcast
9:55 PM 44.6 °F 38.4 °F 37.4 °F 76% 29.69 in 10.0 mi ESE 12.7 mph - N/A   Overcast
10:15 PM 46.4 °F 42.9 °F 37.4 °F 71% 29.67 in 10.0 mi ESE 6.9 mph - N/A   Overcast
10:35 PM 46.4 °F 42.4 °F 39.2 °F 76% 29.66 in 10.0 mi SSE 8.1 mph - N/A   Overcast
10:55 PM 44.6 °F 41.4 °F 37.4 °F 76% 29.65 in 10.0 mi SSE 5.8 mph - N/A   Overcast
11:15 PM 44.6 °F 43.1 °F 39.2 °F 81% 29.63 in 10.0 mi ESE 3.5 mph - N/A   Overcast
11:35 PM 44.6 °F 41.4 °F 39.2 °F 81% 29.63 in 10.0 mi SSW 5.8 mph - N/A   Overcast
11:55 PM 44.6 °F 40.7 °F 39.2 °F 81% 29.61 in 10.0 mi South 6.9 mph - 0.01 in   Overcast